This is the latest recevied weather packets stored in our database for station/object N2PPN. If no packets are shown the sender has not sent any weather packets the latest 10 day(s).
| Time | Temp. | Humidity | Pressure | Rain* | Wind** | Luminosity | Snow |
|---|---|---|---|---|---|---|---|
| 1777659039 | 16.67° C | 44% | 1014.6 hPa | 0 mm | - | 694 W/m² | - |
| 1777658737 | 17.22° C | 39% | 1014.6 hPa | 0 mm | - | 700 W/m² | - |
| 1777658433 | 17.22° C | 37% | 1014.7 hPa | 0 mm | - | 707 W/m² | - |
| 1777658130 | 17.22° C | 36% | 1014.8 hPa | 0 mm | - | 709 W/m² | - |
| 1777657826 | 16.11° C | 37% | 1014.6 hPa | 0 mm | - | 714 W/m² | - |
| 1777657524 | 15.56° C | 38% | 1014.8 hPa | 0 mm | - | 719 W/m² | - |
| 1777657222 | 16.11° C | 38% | 1014.8 hPa | 0 mm | - | 722 W/m² | - |
| 1777656918 | 16.11° C | 38% | 1015 hPa | 0 mm | - | 726 W/m² | - |
| 1777656615 | 15.56° C | 38% | 1014.9 hPa | 0 mm | - | 729 W/m² | - |
| 1777656310 | 16.11° C | 38% | 1014.8 hPa | 0 mm | - | 732 W/m² | - |
| 1777656006 | 16.11° C | 38% | 1015.4 hPa | 0 mm | - | 733 W/m² | - |
| 1777655703 | 15.56° C | 39% | 1014.8 hPa | 0 mm | - | 736 W/m² | - |
| 1777655399 | 15.56° C | 38% | 1015.2 hPa | 0 mm | - | 735 W/m² | - |
| 1777655096 | 16.11° C | 38% | 1015 hPa | 0 mm | - | 739 W/m² | - |
| 1777654793 | 16.11° C | 41% | 1015.1 hPa | 0 mm | - | 737 W/m² | - |
| 1777654491 | 14.44° C | 40% | 1015.1 hPa | 0 mm | - | 739 W/m² | - |
| 1777654188 | 15° C | 41% | 1015.4 hPa | 0 mm | - | 739 W/m² | - |
| 1777653887 | 15.56° C | 39% | 1015.2 hPa | 0 mm | - | 736 W/m² | - |
| 1777653583 | 15° C | 41% | 1015.2 hPa | 0 mm | - | 736 W/m² | - |
| 1777653279 | 15.56° C | 38% | 1015.3 hPa | 0 mm | - | 735 W/m² | - |
| 1777652976 | 15.56° C | 39% | 1015.5 hPa | 0 mm | - | 734 W/m² | - |
| 1777652672 | 15.56° C | 39% | 1015.4 hPa | 0 mm | - | 733 W/m² | - |
| 1777652369 | 15.56° C | 41% | 1015.8 hPa | 0 mm | - | 730 W/m² | - |
| 1777652066 | 15.56° C | 40% | 1015.5 hPa | 0 mm | - | 728 W/m² | - |
| 1777651763 | 14.44° C | 40% | 1015.8 hPa | 0 mm | - | 724 W/m² | - |
* Rain latest hour (hover to see other rain measurements)
** Current wind speed in m/s (hover to see current wind gust speed)